GW3217 Weather Reports


Display with metric or nautical units.
time (UTC)temp
F
wind
direction
speed
MPH
gust
MPH
rain 1hr
in
rain 24hr
in
rain mn
in
humidity
%
barometer
mb
20260902061001 60 313 0.0 0.0 0.00 0.01 0.01 99 1022.2
20260902060457 60 314 0.0 0.0 0.00 0.01 0.01 99 1022.1
20260902055953 60 316 0.0 0.0 0.05 0.01 0.01 99 1022.3
20260902055448 60 323 0.0 0.0 0.05 0.01 0.01 99 1022.1
20260902054944 60 307 0.0 0.0 0.00 0.00 0.00 99 1022.3
20260902054433 60 325 0.0 0.0 0.00 0.00 0.00 99 1022.1
20260902053929 60 321 0.0 0.0 0.00 0.00 0.00 99 1022.2
20260902053424 60 305 0.0 0.0 0.00 0.00 0.00 99 1022.3
20260902052923 60 320 0.0 0.0 0.00 0.00 0.00 99 1022.3
20260902052418 60 313 1.0 2.0 0.00 0.00 0.00 99 1022.1
20260902051913 60 311 0.0 0.0 0.00 0.00 0.00 99 1022.1
20260902051408 60 311 0.0 0.0 0.00 0.00 0.00 99 1022.1
20260902050906 60 315 0.0 0.0 0.00 0.00 0.00 99 1022.0
20260902050401 60 308 0.0 0.0 0.00 0.00 0.00 99 1022.0
20260902045856 60 304 1.0 1.0 0.00 0.00 0.00 99 1022.0
20260902045351 60 308 0.0 0.0 0.00 0.00 0.00 99 1022.1
20260902044848 60 333 0.0 0.0 0.00 0.00 0.00 99 1022.1
20260902044343 60 347 0.0 0.0 0.00 0.00 0.00 99 1022.0
20260902043843 60 312 0.0 0.0 0.00 0.00 0.00 99 1022.0
20260902043338 60 315 0.0 0.0 0.00 0.00 0.00 99 1022.0
20260902042838 60 312 0.0 0.0 0.00 0.00 0.00 99 1022.1
20260902042338 60 314 0.0 0.0 0.00 0.00 0.00 99 1021.9
20260902041834 60 314 0.0 0.0 0.00 0.00 0.00 99 1021.8
20260902041333 60 308 0.0 0.0 0.00 0.00 0.00 99 1021.6
20260902040827 60 291 0.0 0.0 0.00 0.00 0.00 99 1021.8
20260902040323 60 308 0.0 0.0 0.00 0.00 0.00 99 1021.9
20260902035821 60 300 1.0 2.0 0.00 0.65 0.65 99 1021.6
20260902035317 60 311 0.0 0.0 0.00 0.65 0.65 99 1021.8
20260902034815 60 314 2.0 4.0 0.00 0.65 0.65 99 1021.6
20260902034311 60 331 1.0 2.0 0.00 0.65 0.65 99 1021.4
20260902033809 60 326 0.0 0.0 0.00 0.65 0.65 99 1021.3
20260902033304 60 295 0.0 0.0 0.00 0.65 0.65 99 1021.1
20260902032803 60 299 0.0 0.0 0.00 0.65 0.65 99 1021.0
20260902032258 60 314 1.0 2.0 0.00 0.65 0.65 99 1021.0
20260902031757 60 277 1.0 2.0 0.00 0.65 0.65 99 1021.0
20260902031254 60 309 0.0 0.0 0.00 0.65 0.65 99 1021.3
20260902030749 60 314 0.0 0.0 0.00 0.65 0.65 99 1021.2
20260902030244 60 314 0.0 0.0 0.00 0.65 0.65 99 1020.9
20260902025743 60 336 0.0 0.0 0.00 0.65 0.65 99 1021.0
20260902025238 60 273 0.0 0.0 0.00 0.65 0.65 99 1021.1
20260902024733 60 323 0.0 0.0 0.00 0.65 0.65 99 1021.3
20260902024228 60 314 0.0 0.0 0.00 0.65 0.65 99 1020.9
20260902023724 60 160 2.0 3.0 0.00 0.65 0.65 99 1020.6
20260902023218 60 320 2.0 3.0 0.00 0.65 0.65 99 1020.8
20260902022718 61 304 0.0 0.0 0.00 0.65 0.65 99 1020.9
20260902022214 61 281 0.0 1.0 0.00 0.65 0.65 99 1020.8
20260902021709 61 313 0.0 0.0 0.00 0.65 0.65 99 1020.8
20260902021203 61 303 0.0 0.0 0.00 0.65 0.65 99 1020.5
20260902020700 61 318 0.0 0.0 0.00 0.65 0.65 99 1020.7
20260902020155 61 308 0.0 0.0 0.00 0.65 0.65 99 1020.7
20260902015650 61 287 0.0 0.0 0.00 0.65 0.65 99 1020.6
20260902015147 61 322 2.0 2.0 0.00 0.65 0.65 99 1020.6
20260902014642 61 296 0.0 0.0 0.00 0.65 0.65 99 1020.6
20260902014138 61 304 2.0 2.0 0.00 0.65 0.65 99 1020.7
20260902013632 62 311 2.0 2.0 0.00 0.65 0.65 99 1020.6
20260902013128 61 326 1.0 1.0 0.00 0.65 0.65 99 1020.6
20260902012622 61 317 0.0 0.0 0.00 0.65 0.65 99 1020.4
20260902012118 61 301 1.0 1.0 0.00 0.65 0.65 99 1020.2
20260902011613 62 307 1.0 1.0 0.00 0.65 0.65 99 1020.1
20260902011113 62 311 1.0 1.0 0.00 0.65 0.65 99 1020.0
20260902010607 62 299 2.0 2.0 0.00 0.65 0.65 99 1020.0
20260902005600 62 315 1.0 2.0 0.00 0.65 0.65 99 1020.2
20260902005057 62 313 0.0 0.0 0.00 0.65 0.65 99 1020.0
20260902004556 62 219 0.0 1.0 0.00 0.65 0.65 99 1019.8
20260902004051 62 315 0.0 0.0 0.00 0.65 0.65 99 1019.8
20260902003547 62 306 0.0 0.0 0.00 0.65 0.65 99 1019.7
20260902003042 62 347 1.0 2.0 0.00 0.65 0.65 99 1020.1
20260902002537 63 310 0.0 0.0 0.00 0.65 0.65 99 1019.8
20260902002032 63 344 2.0 2.0 0.00 0.65 0.65 99 1019.6
20260902001527 63 290 1.0 2.0 0.00 0.65 0.65 99 1019.5
20260902001022 63 332 1.0 1.0 0.00 0.65 0.65 99 1019.4
20260902000517 63 305 1.0 1.0 0.00 0.65 0.65 99 1019.5
20260902000013 63 294 0.0 0.0 0.00 0.65 0.65 99 1019.3
20260901235507 63 318 1.0 2.0 0.00 0.65 0.65 99 1019.3
20260901235003 64 311 0.0 0.0 0.00 0.65 0.65 99 1019.1
20260901234501 64 306 2.0 3.0 0.00 0.65 0.65 99 1019.4
20260901233956 64 290 3.0 3.0 0.00 0.65 0.65 99 1019.3
20260901233451 64 293 2.0 2.0 0.00 0.65 0.65 98 1019.2
20260901232947 65 318 2.0 2.0 0.00 0.65 0.65 99 1019.2
20260901232442 65 314 0.0 0.0 0.00 0.65 0.65 98 1019.2
20260901231937 65 301 2.0 2.0 0.00 0.65 0.65 98 1019.3
20260901231433 65 266 3.0 3.0 0.00 0.65 0.65 98 1018.9
20260901230930 66 314 2.0 2.0 0.00 0.65 0.65 98 1019.4
20260901230429 66 349 2.0 3.0 0.00 0.65 0.65 98 1019.4
20260901225924 67 299 2.0 2.0 0.00 0.65 0.65 98 1019.1
20260901225419 68 317 0.0 0.0 0.00 0.65 0.65 98 1018.5
20260901224913 69 304 2.0 3.0 0.00 0.65 0.65 98 1018.4
20260901224410 71 297 1.0 2.0 0.00 0.65 0.65 98 1018.4
20260901223906 73 18 0.0 0.0 0.00 0.65 0.65 99 1018.3
20260901223401 73 318 0.0 0.0 0.00 0.65 0.65 99 1018.2
20260901222857 73 324 0.0 0.0 0.00 0.65 0.65 99 1018.0
20260901222353 73 317 0.0 0.0 0.00 0.65 0.65 99 1017.9
20260901221848 73 324 0.0 0.0 0.00 0.65 0.65 99 1017.9
20260901221344 73 329 0.0 0.0 0.00 0.65 0.65 99 1018.0
20260901220843 73 322 0.0 0.0 0.00 0.65 0.65 99 1017.9
20260901220342 73 326 0.0 0.0 0.00 0.65 0.65 98 1018.0
20260901215841 73 328 0.0 0.0 0.00 0.65 0.65 98 1017.9
20260901215340 74 326 0.0 0.0 0.00 0.65 0.65 97 1018.0
20260901214839 74 321 0.0 0.0 0.00 0.65 0.65 96 1018.0
20260901214338 74 319 0.0 0.0 0.00 0.65 0.65 97 1017.8
20260901213833 74 325 0.0 0.0 0.00 0.65 0.65 97 1017.8
20260901213333 74 325 0.0 0.0 0.00 0.65 0.65 96 1017.7
20260901212827 75 340 0.0 0.0 0.00 0.65 0.65 95 1017.7
20260901212323 75 331 0.0 0.0 0.00 0.65 0.65 95 1017.9
20260901211819 76 315 0.0 0.0 0.00 0.65 0.65 91 1017.9
20260901211315 76 342 1.0 1.0 0.00 0.65 0.65 91 1017.8
20260901210805 76 320 0.0 0.0 0.00 0.65 0.65 90 1017.7
20260901210301 75 322 0.0 0.0 0.00 0.65 0.65 93 1017.7
20260901205756 75 323 0.0 0.0 0.00 0.65 0.65 93 1017.8
20260901205256 75 329 0.0 0.0 0.00 0.65 0.65 94 1017.8
20260901204751 76 317 0.0 0.0 0.00 0.65 0.65 92 1017.8
20260901204242 76 329 0.0 0.0 0.00 0.65 0.65 93 1017.6
20260901203736 75 336 1.0 1.0 0.00 0.65 0.65 94 1017.7
20260901203231 74 326 0.0 0.0 0.00 0.65 0.65 95 1017.7
20260901202730 74 348 0.0 0.0 0.00 0.65 0.65 94 1017.6
20260901202226 74 333 0.0 0.0 0.00 0.65 0.65 95 1017.5
20260901201721 75 330 0.0 0.0 0.00 0.65 0.65 93 1017.6
20260901201220 75 330 0.0 0.0 0.00 0.65 0.65 93 1017.8
20260901200714 76 319 0.0 0.0 0.00 0.65 0.65 92 1017.7
20260901200209 77 315 0.0 0.0 0.00 0.65 0.65 89 1017.8
20260901195707 77 336 0.0 0.0 0.00 0.65 0.65 90 1017.6
20260901195201 77 317 0.0 0.0 0.00 0.65 0.65 88 1017.6
20260901194658 77 320 0.0 0.0 0.00 0.65 0.65 89 1017.6
20260901194152 77 312 1.0 1.0 0.00 0.65 0.65 89 1017.6
20260901193643 77 292 1.0 1.0 0.00 0.65 0.65 89 1017.3
20260901193142 77 318 0.0 0.0 0.00 0.65 0.65 88 1017.3
20260901192637 76 321 0.0 1.0 0.00 0.65 0.65 88 1017.7
20260901192132 75 314 0.0 0.0 0.00 0.65 0.65 94 1017.7
20260901191628 75 320 0.0 0.0 0.00 0.65 0.65 92 1017.7
20260901191124 75 326 0.0 0.0 0.00 0.65 0.65 92 1017.8
20260901190615 76 302 1.0 1.0 0.00 0.65 0.65 93 1017.7
20260901190113 76 308 0.0 0.0 0.00 0.65 0.65 92 1017.6
20260901185611 75 316 0.0 0.0 0.00 0.65 0.65 94 1017.7
20260901185105 76 315 0.0 0.0 0.00 0.65 0.65 91 1017.8
20260901184601 76 304 0.0 0.0 0.00 0.65 0.65 92 1017.8
20260901184055 77 318 0.0 0.0 0.00 0.65 0.65 92 1018.0
20260901183550 76 324 0.0 1.0 0.00 0.65 0.65 91 1017.7
20260901183046 75 327 0.0 1.0 0.00 0.65 0.65 92 1017.8
20260901182542 74 323 0.0 0.0 0.00 0.65 0.65 93 1017.8
20260901182041 74 318 0.0 0.0 0.00 0.65 0.65 96 1017.9
20260901181541 73 332 0.0 0.0 0.00 0.65 0.65 96 1017.7
20260901181035 73 316 1.0 1.0 0.00 0.65 0.65 96 1017.9
20260901180533 73 330 0.0 0.0 0.00 0.65 0.65 97 1017.9
20260901180028 72 320 0.0 0.0 0.00 0.65 0.65 99 1017.9
20260901175522 72 316 0.0 0.0 0.00 0.65 0.65 99 1017.8
20260901175016 71 315 0.0 0.0 0.00 0.65 0.65 99 1017.8
20260901174512 71 314 0.0 0.0 0.00 0.65 0.65 99 1018.2
20260901174008 71 326 0.0 0.0 0.00 0.65 0.65 99 1017.9
20260901173503 72 315 0.0 0.0 0.00 0.65 0.65 99 1017.8
20260901172959 71 314 0.0 0.0 0.00 0.65 0.65 99 1017.9
20260901172454 71 2 1.0 2.0 0.00 0.65 0.65 99 1017.9
20260901171952 70 322 0.0 0.0 0.00 0.65 0.65 99 1017.6
20260901171450 70 319 0.0 0.0 0.00 0.65 0.65 99 1017.9
20260901170949 70 318 0.0 0.0 0.00 0.65 0.65 99 1018.0
20260901170444 70 318 0.0 0.0 0.00 0.65 0.65 99 1017.9
20260901165944 70 319 0.0 0.0 0.00 0.65 0.65 99 1017.8
20260901165439 70 315 0.0 0.0 0.00 0.65 0.65 99 1018.1
20260901164936 69 326 0.0 0.0 0.00 0.65 0.65 99 1018.0
20260901164436 69 333 0.0 0.0 0.00 0.65 0.65 99 1018.1
20260901163931 69 319 0.0 0.0 0.00 0.65 0.65 99 1018.2
20260901163427 69 312 1.0 1.0 0.00 0.65 0.65 99 1018.2
20260901162919 69 315 0.0 0.0 0.00 0.65 0.65 99 1018.1
20260901162420 69 332 0.0 0.0 0.00 0.65 0.65 99 1018.3
20260901161914 69 323 0.0 0.0 0.00 0.65 0.65 99 1018.3
20260901161413 69 326 0.0 0.0 0.00 0.65 0.65 99 1018.4
20260901160908 69 320 0.0 0.0 0.00 0.65 0.65 99 1019.0
20260901160405 69 313 0.0 0.0 0.00 0.65 0.65 99 1018.5
20260901155904 68 313 0.0 0.0 0.00 0.65 0.65 99 1019.0
20260901155358 68 320 0.0 0.0 0.00 0.65 0.65 99 1019.0
20260901154855 68 315 0.0 0.0 0.00 0.65 0.65 99 1019.2
20260901154354 68 315 0.0 0.0 0.00 0.65 0.65 99 1019.4
20260901153849 68 324 0.0 0.0 0.00 0.65 0.65 99 1019.5
20260901153344 68 326 0.0 0.0 0.00 0.65 0.65 99 1019.5
20260901152842 68 319 0.0 0.0 0.00 0.65 0.65 99 1019.2
20260901152337 68 327 0.0 0.0 0.00 0.65 0.65 99 1019.4
20260901151832 68 320 0.0 0.0 0.00 0.65 0.65 99 1019.1
20260901151331 68 321 0.0 0.0 0.00 0.65 0.65 99 1019.1
20260901150825 68 326 0.0 0.0 0.00 0.65 0.65 99 1019.0
20260901150323 68 9 0.0 0.0 0.00 0.65 0.65 99 1019.0
20260901145821 68 320 0.0 0.0 0.00 0.65 0.65 99 1019.1
20260901145321 68 326 0.0 0.0 0.00 0.65 0.65 99 1018.9
20260901144816 68 328 0.0 0.0 0.00 0.65 0.65 99 1018.8
20260901144312 68 324 0.0 0.0 0.00 0.65 0.65 99 1019.1
20260901143808 67 316 0.0 0.0 0.00 0.65 0.65 99 1019.0
20260901143304 67 320 0.0 0.0 0.07 0.65 0.65 99 1018.8
20260901142800 68 323 0.0 0.0 0.12 0.65 0.65 99 1018.8
20260901142258 68 327 0.0 0.0 0.19 0.65 0.65 99 1019.1
20260901141754 68 324 0.0 0.0 0.19 0.63 0.63 99 1019.2
20260901141249 67 320 0.0 0.0 0.17 0.62 0.62 99 1019.3
20260901140748 67 324 0.0 0.0 0.05 0.60 0.60 99 1019.2
20260901140246 67 325 0.0 0.0 0.00 0.59 0.59 99 1019.2
20260901135741 67 327 0.0 0.0 0.00 0.59 0.59 99 1019.1
20260901135236 67 327 0.0 0.0 0.00 0.59 0.59 99 1019.2
20260901134731 67 328 0.0 0.0 0.07 0.59 0.59 99 1019.1
20260901134225 67 325 0.0 0.0 0.07 0.59 0.59 99 1019.1
20260901133725 67 316 0.0 0.0 0.07 0.58 0.58 99 1019.4
20260901133224 67 323 0.0 0.0 0.12 0.58 0.58 99 1019.0
20260901132723 67 322 0.0 0.0 0.05 0.57 0.57 99 1019.4
20260901132218 67 329 0.0 0.0 0.07 0.56 0.56 99 1019.5
20260901131713 67 326 0.0 0.0 0.12 0.56 0.56 99 1019.3
20260901131213 67 326 0.0 0.0 0.05 0.55 0.55 99 1019.2
20260901130708 66 326 0.0 0.0 0.19 0.54 0.54 99 1019.3
20260901130207 66 329 0.0 0.0 0.54 0.54 0.54 99 1019.3
20260901125705 66 327 0.0 0.0 0.42 0.52 0.52 99 1019.9
20260901125200 66 322 0.0 0.0 0.00 0.45 0.45 99 1019.7
20260901124654 66 322 0.0 0.0 0.00 0.45 0.45 99 1019.7
20260901124149 66 323 0.0 0.0 0.00 0.45 0.45 99 1019.6
20260901123644 67 323 0.0 0.0 0.00 0.45 0.45 99 1019.5
20260901123144 67 323 0.0 0.0 0.00 0.45 0.45 99 1019.4
20260901122642 67 323 0.0 0.0 0.00 0.45 0.45 99 1019.6
20260901122137 66 329 0.0 0.0 0.00 0.45 0.45 99 1019.2
20260901121631 66 344 0.0 0.0 0.00 0.45 0.45 99 1019.3
20260901121127 67 328 0.0 0.0 0.00 0.45 0.45 99 1019.1
20260901120626 67 329 0.0 0.0 0.00 0.45 0.45 99 1019.0
20260901120121 66 325 0.0 0.0 0.00 0.45 0.45 99 1019.1
20260901115616 66 321 0.0 0.0 0.00 0.45 0.45 99 1019.1
20260901115113 66 326 0.0 0.0 0.00 0.45 0.45 99 1019.0
20260901114609 66 326 0.0 0.0 0.00 0.45 0.45 99 1019.1
20260901114108 66 326 0.0 0.0 0.00 0.45 0.45 99 1019.2
20260901113607 66 331 0.0 0.0 0.00 0.45 0.45 99 1019.1
20260901113057 66 324 0.0 0.0 0.00 0.45 0.45 99 1019.2
20260901112556 66 323 0.0 0.0 0.00 0.45 0.45 99 1019.4
20260901112051 66 326 0.0 0.0 0.00 0.45 0.45 99 1019.4
20260901111550 66 326 0.0 0.0 0.05 0.45 0.45 99 1019.2
20260901111049 66 324 0.0 0.0 0.05 0.45 0.45 99 1019.2
20260901110545 66 324 0.0 0.0 0.00 0.44 0.44 99 1019.1
20260901110041 66 343 0.0 0.0 0.00 0.44 0.44 99 1019.1
20260901105537 66 324 0.0 0.0 0.00 0.44 0.44 99 1019.3
20260901105036 66 328 0.0 0.0 0.00 0.44 0.44 99 1019.2
20260901104532 66 322 0.0 0.0 0.00 0.44 0.44 99 1019.1
20260901104027 65 323 0.0 0.0 0.00 0.44 0.44 99 1019.2
20260901103522 65 320 0.0 0.0 0.00 0.44 0.44 99 1019.4
20260901103018 65 323 0.0 0.0 0.00 0.44 0.44 99 1019.3
20260901102517 65 331 0.0 0.0 0.00 0.44 0.44 99 1019.3
20260901102012 65 320 0.0 0.0 0.00 0.44 0.44 99 1019.2
20260901101508 65 339 0.0 0.0 0.00 0.44 0.44 99 1019.4
20260901101001 65 323 0.0 0.0 0.00 0.44 0.44 99 1019.1
20260901100456 65 322 0.0 0.0 0.00 0.44 0.44 99 1019.1
20260901095955 65 320 0.0 0.0 0.00 0.44 0.44 99 1019.0
20260901095454 65 325 0.0 0.0 0.00 0.44 0.44 99 1019.1
20260901094952 65 325 0.0 0.0 0.00 0.44 0.44 99 1019.0
20260901094447 65 321 0.0 0.0 0.00 0.44 0.44 99 1019.0
20260901093946 65 321 0.0 0.0 0.00 0.44 0.44 99 1018.9
20260901093441 65 331 0.0 0.0 0.00 0.44 0.44 99 1019.1
20260901092936 65 322 0.0 0.0 0.00 0.44 0.44 99 1019.1
20260901092432 65 325 0.0 0.0 0.00 0.44 0.44 99 1019.3
20260901091928 65 325 0.0 0.0 0.00 0.44 0.44 99 1019.2
20260901091428 65 326 0.0 0.0 0.00 0.44 0.44 99 1019.3
20260901090923 65 30 0.0 0.0 0.00 0.44 0.44 99 1019.3
20260901090422 65 331 0.0 0.0 0.00 0.44 0.44 99 1019.4
20260901085918 65 307 0.0 0.0 0.00 0.44 0.44 99 1019.0
20260901085414 65 328 0.0 0.0 0.00 0.44 0.44 99 1019.4
20260901084910 65 328 0.0 0.0 0.00 0.44 0.44 99 1019.4
20260901084406 65 323 0.0 0.0 0.00 0.44 0.44 99 1019.4
20260901083901 65 324 0.0 0.0 0.00 0.44 0.44 99 1019.3
20260901083356 65 328 0.0 0.0 0.00 0.44 0.44 99 1019.4
20260901082854 65 327 0.0 0.0 0.07 0.44 0.44 99 1019.5
20260901082349 65 323 0.0 0.0 0.07 0.44 0.44 99 1019.4
20260901081838 65 324 0.0 0.0 0.07 0.44 0.44 99 1019.4
20260901081333 65 340 0.0 0.0 0.00 0.43 0.43 99 1019.6
20260901080828 65 1 1.0 1.0 0.00 0.43 0.43 99 1019.6
20260901080322 66 316 0.0 0.0 0.00 0.43 0.43 99 1019.7
20260901075816 66 330 0.0 0.0 0.05 0.43 0.43 99 1019.9
20260901075311 66 325 0.0 0.0 0.05 0.43 0.43 99 1019.7
20260901074807 66 325 0.0 0.0 0.00 0.42 0.42 99 1020.0
20260901074301 66 323 0.0 0.0 0.07 0.42 0.42 99 1019.9
20260901073757 66 320 0.0 0.0 0.14 0.42 0.42 99 1019.8
20260901073252 66 324 0.0 0.0 0.12 0.41 0.41 99 1019.8
20260901072748 66 329 0.0 0.0 0.05 0.40 0.40 99 1019.8
20260901072243 66 328 0.0 0.0 0.00 0.39 0.39 99 1019.8
20260901071742 66 325 0.0 0.0 0.00 0.39 0.39 99 1019.8
20260901071236 66 334 0.0 0.0 0.00 0.39 0.39 99 1020.0
20260901070730 66 320 0.0 0.0 0.00 0.39 0.39 99 1020.1
20260901070225 66 334 0.0 0.0 0.00 0.39 0.39 99 1020.0
20260901065725 66 330 0.0 0.0 0.00 0.39 0.39 99 1020.1
20260901065220 66 328 0.0 0.0 0.07 0.39 0.39 99 1019.9
20260901064716 66 330 0.0 0.0 0.07 0.39 0.39 99 1019.8
20260901064212 66 323 0.0 0.0 0.00 0.38 0.38 99 1020.1
20260901063709 66 318 0.0 0.0 0.00 0.38 0.38 99 1020.1
20260901063205 65 326 0.0 0.0 0.05 0.38 0.38 99 1020.2
20260901062700 65 323 0.0 0.0 0.17 0.38 0.38 99 1020.1
20260901062156 66 317 0.0 0.0 0.19 0.37 0.37 99 1020.3
20260901061652 66 327 0.0 0.0 0.12 0.35 0.35 99 1020.2
20260901061152 66 318 0.0 0.0 0.05 0.34 0.34 99 1020.4